Location: Buckeye Ditch
(40.9104°N, 122.9517°W)
Time: 14:18:38
(UTC+00:00)

A-11 Canister half - Pass Details

Date: 26 May 2025
Orbit: 1515 x 1684 km, 47.2° (Epoch: 14 June)

Event Time Altitude Azimuth Distance (km) Brightness Sun altitude
Rises 09:41:48 0° 286° (WNW) 4,741 11.5 -24.2°
Reaches altitude 10° 09:44:58 10° 290° (WNW) 3,736 11.0 -24.0°
Maximum altitude 09:54:17 63° 11° (N) 1,675 9.4 -23.2°
Drops below altitude 10° 10:03:26 10° 92° (E) 3,673 11.3 -22.4°
Sets 10:06:31 0° 95° (E) 4,656 11.9 -22.1°
